Voltar ao catálogo

STARLINK-4347

AtivoComunicaçõesSSO
NORAD 53076·PAYLOAD·🇺🇸 United States

Lançado Jul 11, 2022 de Vandenberg Space Force Base

Loading…

Próximas Passagens (próximas 24 horas)

TLE

AtualizadoSource: CelesTrak SupGP

Época: Sep 14, 2026, 21:03 UTC

1 53076C 22077AK  26257.87756944  .00072402  00000+0  22480-2 0  2570
2 53076  97.2853  72.7028 0001440  93.4634  62.0885 15.33395446    14

Acompanhe STARLINK-4347 em tempo real com AllMySat

Download on the App Store